This demonstration page uses our WeatherBlox Daily Observations layout. Learn more.

Left ArrowRight Arrow

44.31136, -96.79839

Hourly Observations for July 28, 2015

Temp ( °F °C ) Dew Point ( °F °C ) Humidity (%) Winds ( mph kmh ) Pressure ( in mb ) Visibility ( mi km ) Precip ( " mm )
12:15 am 00:15 Cloudy 75 24 70 21 83 83 SSE 14 22 29.71 1006 10 16 0.00 0.00
12:35 am 00:35 Cloudy 73 23 70 21 89 89 SSE 15 24 29.71 1006 10 16 0.00 0.00
12:55 am 00:55 Cloudy with Thunderstorms 73 23 70 21 89 89 SSE 18 30 29.71 1006 9 14 0.03 0.76
1:15 am 01:15 Cloudy with Nearby Thunderstorms 73 23 70 21 89 89 SSE 18 30 29.68 1005 10 16 0.00 0.00
1:35 am 01:35 Cloudy with Nearby Thunderstorms 73 23 68 20 83 83 SSE 20 31 29.68 1005 10 16 0.00 0.00
1:55 am 01:55 Mostly Cloudy with Nearby Thunderstorms 72 22 66 19 83 83 SSE 20 31 29.65 1004 10 16 0.00 0.00
2:15 am 02:15 Mostly Cloudy 72 22 66 19 83 83 SE 18 30 29.65 1004 10 16 0.00 0.00
2:35 am 02:35 Cloudy 72 22 66 19 83 83 SSE 16 26 29.65 1004 10 16 0.00 0.00
2:55 am 02:55 Cloudy with Thunderstorms N/A N/A N/A SSE 20 31 N/A 10 16 0.01 0.25
3:15 am 03:15 Cloudy with Thunderstorms 70 21 64 18 83 83 W 25 41 29.74 1007 3 4 0.28 7.11
3:35 am 03:35 Mostly Cloudy with Thunderstorms 70 21 64 18 83 83 S 10 17 29.74 1007 10 16 0.36 9.14
3:55 am 03:55 Cloudy with Nearby Thunderstorms 70 21 64 18 83 83 Calm 29.74 1007 10 16 0.39 9.91
4:15 am 04:15 Cloudy with Thunderstorms 70 21 64 18 83 83 SE 5 7 29.74 1007 8 13 0.03 0.76
4:35 am 04:35 Cloudy with Thunderstorms 70 21 64 18 83 83 S 5 7 29.74 1007 10 16 0.07 1.78
4:55 am 04:55 Cloudy with Nearby Thunderstorms 70 21 64 18 83 83 SE 10 17 29.71 1006 10 16 0.10 2.54
5:15 am 05:15 Cloudy 70 21 64 18 83 83 ESE 17 28 29.68 1005 10 16 0.02 0.51
5:35 am 05:35 Partly Cloudy 68 20 63 17 83 83 E 12 19 29.65 1004 10 16 0.03 0.76
5:55 am 05:55 Clear 70 21 63 17 78 78 ESE 16 26 29.59 1002 10 16 0.03 0.76
6:15 am 06:15 Sunny 70 21 63 17 78 78 S 8 13 29.68 1005 10 16 0.00 0.00
6:55 am 06:55 Mostly Sunny 68 20 63 17 83 83 SSW 12 19 29.71 1006 10 16 0.00 0.00
7:15 am 07:15 Sunny 68 20 63 17 83 83 S 9 15 29.71 1006 10 16 0.00 0.00
7:35 am 07:35 Partly Cloudy 68 20 63 17 83 83 S 12 19 29.74 1007 10 16 0.00 0.00
7:55 am 07:55 Cloudy 68 20 63 17 83 83 S 10 17 29.77 1008 10 16 0.00 0.00
8:15 am 08:15 Mostly Cloudy 70 21 63 17 78 78 S 14 22 29.77 1008 10 16 0.00 0.00
8:55 am 08:55 Mostly Sunny 70 21 66 19 88 88 S 12 19 29.77 1008 10 16 0.00 0.00
9:15 am 09:15 Mostly Sunny 72 22 66 19 83 83 SSW 13 20 29.77 1008 10 16 0.00 0.00
9:35 am 09:35 Mostly Sunny 73 23 66 19 78 78 SSW 14 22 29.74 1007 10 16 0.00 0.00
9:55 am 09:55 Sunny 75 24 66 19 74 74 SW 15 24 29.74 1007 10 16 0.00 0.00
10:15 am 10:15 Sunny 75 24 68 20 78 78 SW 17 28 29.74 1007 10 16 0.00 0.00
10:35 am 10:35 Partly Cloudy 77 25 68 20 74 74 WSW 22 35 29.74 1007 10 16 0.00 0.00
10:55 am 10:55 Mostly Cloudy 75 24 68 20 78 78 WSW 20 31 29.74 1007 10 16 0.00 0.00
11:15 am 11:15 Cloudy 73 23 66 19 78 78 WSW 20 31 29.77 1008 10 16 0.00 0.00
11:35 am 11:35 Cloudy 73 23 66 19 78 78 WSW 15 24 29.77 1008 10 16 0.00 0.00
11:55 am 11:55 Cloudy 73 23 66 19 78 78 W 12 19 29.77 1008 10 16 0.00 0.00
12:15 pm 12:15 Cloudy 72 22 64 18 78 78 W 16 26 29.83 1010 10 16 0.00 0.00
12:35 pm 12:35 Cloudy 72 22 64 18 78 78 W 21 33 29.83 1010 10 16 0.00 0.00
12:55 pm 12:55 Mostly Cloudy 72 22 64 18 78 78 WNW 15 24 29.83 1010 10 16 0.00 0.00
1:15 pm 13:15 Mostly Sunny 73 23 63 17 69 69 W 18 30 29.83 1010 10 16 0.00 0.00
1:35 pm 13:35 Sunny 73 23 63 17 69 69 W 18 30 29.83 1010 10 16 0.00 0.00
1:55 pm 13:55 Sunny 75 24 59 15 57 57 WNW 21 33 29.80 1009 10 16 0.00 0.00
2:15 pm 14:15 Sunny 75 24 61 16 61 61 W 14 22 29.80 1009 10 16 0.00 0.00
2:35 pm 14:35 Sunny 75 24 59 15 57 57 W 21 33 29.83 1010 10 16 0.00 0.00
2:55 pm 14:55 Sunny 75 24 59 15 57 57 W 23 37 29.83 1010 10 16 0.00 0.00
3:15 pm 15:15 Sunny 75 24 57 14 54 54 WNW 18 30 29.83 1010 10 16 0.00 0.00
3:35 pm 15:35 Sunny 75 24 59 15 57 57 W 18 30 29.83 1010 10 16 0.00 0.00
3:55 pm 15:55 Sunny 75 24 57 14 54 54 W 22 35 29.83 1010 10 16 0.00 0.00
4:15 pm 16:15 Sunny 75 24 57 14 54 54 W 21 33 29.83 1010 10 16 0.00 0.00
4:35 pm 16:35 Sunny 75 24 57 14 54 54 W 20 31 29.83 1010 10 16 0.00 0.00
4:55 pm 16:55 Sunny 75 24 57 14 54 54 W 18 30 29.83 1010 10 16 0.00 0.00
5:15 pm 17:15 Sunny 75 24 57 14 54 54 W 15 24 29.83 1010 10 16 0.00 0.00
5:35 pm 17:35 Sunny 77 25 57 14 51 51 W 18 30 29.83 1010 10 16 0.00 0.00
5:55 pm 17:55 Sunny 77 25 57 14 51 51 W 17 28 29.83 1010 10 16 0.00 0.00
6:15 pm 18:15 Sunny 75 24 55 13 50 50 W 16 26 29.85 1011 10 16 0.00 0.00
6:35 pm 18:35 Sunny 75 24 55 13 50 50 W 18 30 29.85 1011 9 14 0.00 0.00
7:15 pm 19:15 Sunny 75 24 55 13 50 50 W 14 22 29.85 1011 10 16 0.00 0.00
7:35 pm 19:35 Sunny 75 24 55 13 50 50 W 12 19 29.85 1011 10 16 0.00 0.00
7:55 pm 19:55 Sunny 73 23 55 13 53 53 W 8 13 29.88 1012 10 16 0.00 0.00
8:15 pm 20:15 Sunny 73 23 57 14 57 57 W 7 11 29.88 1012 10 16 0.00 0.00
8:35 pm 20:35 Sunny 72 22 57 14 61 61 W 8 13 29.88 1012 10 16 0.00 0.00
8:55 pm 20:55 Sunny 72 22 55 13 57 57 W 8 13 29.91 1013 10 16 0.00 0.00
9:15 pm 21:15 Clear 70 21 55 13 60 60 W 8 13 29.91 1013 10 16 0.00 0.00
9:35 pm 21:35 Clear 70 21 55 13 60 60 W 8 13 29.91 1013 10 16 0.00 0.00
9:55 pm 21:55 Clear 66 19 55 13 68 68 WNW 7 11 29.97 1015 10 16 0.00 0.00
10:15 pm 22:15 Clear 64 18 54 12 68 68 WNW 7 11 29.97 1015 10 16 0.00 0.00
10:35 pm 22:35 Clear 66 19 54 12 64 64 Calm 29.97 1015 10 16 0.00 0.00
10:55 pm 22:55 Clear 64 18 54 12 68 68 WSW 3 6 30.00 1016 10 16 0.00 0.00
11:35 pm 23:35 Clear 64 18 54 12 68 68 WSW 5 7 30.03 1017 10 16 0.00 0.00
11:55 pm 23:55 Clear 64 18 54 12 68 68 WSW 6 9 30.03 1017 10 16 0.00 0.00

Powered by AerisWeather